[Date Prev][Date Next][Thread Prev][Thread Next] - [Date Index][Thread Index][Author Index]
2 Line ISS Keps 10-5
- Subject: [sarex] 2 Line ISS Keps 10-5
- From: "Dave Larsen PhD" <doc@xxxxxxxxxxx>
- Date: Sat, 5 Oct 2002 11:46:34 -0700
ISS
1 25544U 98067A 02278.48645833 .00049762 00000-0 57964-3 0 2210
2 25544 51.6361 219.1059 0017054 337.0861 193.2936 15.60999135221237
----
Via the sarex mailing list at AMSAT.ORG courtesy of AMSAT-NA.
To unsubscribe, send "unsubscribe sarex" to Majordomo@amsat.org
AMSAT Home